Probability
0 0 0 0 0 0 0 0 0 0 0 0 0 0 0 0 0 0 0 0 0 0 0 0 0 0 0 0 0 0 0 0 0 0 0 0 0 0
0 0 0 0 0 0 0 0 0 0 0 0 0 0 0 0 0 0 0 0 0 0 0 0 0 0 0 0 0 0 0 0 0 0 0 0 0 0
0 0 0 0 0 0 0 0 0 0 0 0 0 0 0 0 0 0 0 0 0 0 0 0 0 0 0 0 0 0 0 0 0 0 0 0 0 0
0 0 0 0 0 0 0 0 0 0 0 0 0 0 0 0 0 0 0 0 0 0 0 0 0 0 0 0 0 0 0 0 0 0 0 0 0 0
0 0 0 0 0 0 0 0 0 0 0 0 0 0 0 0 0 0 0 0 0 0 0 0 0 0 0 0 0 0 0 0 0 0 0 0 0 0
0 0 0 0 0 0 0 0 0 0 0 0 0 0 0 0 0 0 0 0 0 0 0 0 0 0 0 0 0 0 0 0 0 0 0 0 0 0
0 0 0 0 0 0 0 0 0 0 0 0 0 0 0 0 0 0 0 0 0 0 0 0 0 0 0 0 0 0 0 0 0 0 0 0 0 0
0 0 0 0 0 0 0 0 0 0 0 0 0 0 0 0 0 0 0 0 0 0 0 0 0 0 0 0 0 0 0 0 0 0 0 0 0 0
0 0 0 0 0 0 0 0 0 0 0 0 0 0 0 0 0 0 0 0 0 0 0 0 0 0 0 0 0 0 0 0 0 0 0 0 0 0
0 0 0 0 0 0 0 0 0 0 0 0 0 0 0 0 0 0 0 0 0 0 0 0 0 0 0 0 0 0 0 0 0 0 0 0 0 0
0 0 0 0 0 0 0 0 0 0 0 0 0 0 0 0 0 0 0 0 0 0 0 0 0 0 0 0 0 0 0 0 0 0 0 0 0 0
0 0 0 0 0 0 0 0 0 0 0 0 0 0 0 0 0 0 0 0 0 0 0 0 0 0 0 0 0 0 0 0 0 0 0 0 0 0
0 0 0 0 0 0 0 0 0 0 0 0 0 0 0 0 0 0 0 0 0 0 0 0 0 0 0 0 0 0 0 0 0 0 0 0 0 0
0 0 0 0 0 0 0 0 0 0 0 0 0 0 0 0 0 0 0 0 0 0 0 0 0 0 0 0 0 0 0 0 0 0 0 0 0 0
0 0 0 0 0 0 0 0 0 0 0 0 0 0 0 0 0 0 0 0 0 0 0 0 0 0 0 0 0 0 0 0 0 0 0 0 0 0
0 0 0 0 0 0 0 0 0 0 0 0 0 0 0 0 0 0 0 0 0 0 0 0 0 0 0 0 0 0 0 0 0 0 0 0 0 0
0 0 0 0 0 0 0 0 0 0 0 0 0 0 0 0 0 0 0 0 0 0 0 0 0 0 0 0 0 0 0 0 0 0 0 0 0 0
0 0 0 0 0 0 0 0 0 0 0 0 0 0 0 0 0 0 0 0 0 0 0 0 0 0 0 0 0 0 0 0 0 0 0 0 0 0
0 0 0 0 0 0 0 0 0 0 0 0 0 0 0 0 0 0 0 0 0 0 0 0 0 0 0 0 0 0 0 0 0 0 0 0 0 0
0 0 0 0 0 0 0 0 0 0 0 0 0 0 0 0 0 0 0 0 0 0 0 0 0 0 0 0 0 0 0 0 0 0 0 0 0 0
0 0 0 0 0 0 0 0 0 0 0 0 0 0 0 0 0 0 0 0 0 0 0 0 0 0 0 0 0 0 0 0 0 0 0 0 0 0
0 0 0 0 0 0 0 0 0 0 0 0 0 0 0 0 0 0 0 0 0 0 0 0 0 0 0 0 0 0 0 0 0 0 0 0 0 0
0 0 0 0 0 0 0 0 0 0 0 0 0 0 0 0 0 0 0 0 0 0 0 0 0 0 0 0 0 0 0 0 0 0 0 0 0 0
Wind_Speed
3 3 2 2 2 2 3 3 3 3 4 2 1 1 1 1 3 2 2 7 9 9 10 10 10 10 9 9 9 10 10 10 11 11 12 13 14 14
2 3 3 2 2 2 3 3 3 3 4 2 2 2 2 2 4 3 3 8 9 10 10 10 10 10 9 9 9 9 10 10 11 11 12 13 14 14
2 2 3 3 2 2 2 2 3 3 5 4 2 2 2 2 3 2 3 3 4 9 10 9 9 9 9 8 8 9 9 10 11 12 12 13 13 13
3 3 3 2 3 2 2 3 3 3 4 5 3 2 3 2 2 3 3 3 3 7 9 9 9 9 9 8 8 8 9 9 10 11 12 13 13 13
3 3 4 3 3 2 3 3 3 3 3 4 4 2 2 2 2 3 3 3 4 5 7 8 9 9 8 8 8 7 8 9 10 11 12 12 12 13
3 3 4 4 4 4 3 3 3 3 3 3 3 3 2 2 1 2 3 2 3 3 5 6 7 8 8 8 8 7 8 8 10 11 12 11 11 11
2 2 3 4 5 5 4 3 3 3 3 3 3 3 2 2 2 2 3 3 3 2 3 3 3 3 4 6 7 7 7 8 9 10 10 10 10 10
2 2 3 3 4 5 6 6 4 4 4 4 4 4 4 3 2 2 2 2 3 2 2 3 2 3 3 3 6 7 8 9 9 9 10 10 10 9
2 2 2 2 3 2 3 5 5 6 6 5 5 5 4 3 3 3 3 3 4 3 2 4 3 4 3 4 8 7 8 9 9 9 9 10 9 9
2 2 2 3 3 3 2 2 3 3 4 4 4 5 4 4 4 4 3 3 3 2 1 3 3 3 4 3 6 7 8 8 9 9 9 9 9 9
2 2 2 3 5 5 2 2 3 2 3 4 5 5 5 5 3 1 2 2 3 2 1 2 3 3 3 3 4 6 7 8 9 9 9 9 8 8
1 2 4 4 5 5 2 2 3 3 2 2 2 4 3 3 4 2 2 2 2 3 1 1 2 2 3 2 2 2 4 6 9 9 9 9 8 4
1 1 2 5 6 5 4 2 4 3 2 2 1 2 1 1 1 1 2 2 3 3 2 1 2 1 2 4 3 2 2 3 3 4 6 8 9 6
2 2 2 5 4 4 3 3 4 3 1 1 1 2 1 2 2 2 2 3 3 4 3 2 2 2 2 3 4 3 3 2 2 3 3 6 7 8
1 3 4 4 4 3 3 4 3 1 1 1 2 2 2 2 2 2 2 2 2 3 3 3 3 2 3 3 3 3 3 3 2 2 3 3 3 4
1 2 3 3 3 2 3 2 1 1 1 1 2 2 1 1 2 2 2 1 2 2 2 2 3 3 3 4 4 4 3 3 3 3 3 3 3 3
0 0 0 1 1 1 1 1 1 1 1 1 2 2 2 2 2 2 2 1 2 2 2 2 2 2 3 3 3 4 3 3 3 3 3 4 4 3
1 0 1 1 1 1 1 1 1 1 1 1 2 2 2 2 2 2 1 1 2 2 2 2 2 2 1 2 4 3 3 3 3 3 2 3 4 4
0 1 1 1 1 1 2 2 2 2 2 2 2 2 2 2 2 2 2 2 2 2 2 2 1 1 2 3 3 2 2 3 3 3 3 3 4 5
0 1 1 1 1 2 2 2 2 2 2 2 2 2 2 2 2 2 2 2 2 2 2 1 1 2 2 3 3 3 4 3 3 3 3 3 3 5
1 1 2 2 2 2 2 2 2 2 2 2 2 2 2 2 2 2 2 3 2 2 2 2 2 3 1 1 2 3 3 4 4 3 3 3 4 3
2 2 2 2 2 2 2 2 2 2 3 2 2 2 2 2 3 2 2 2 2 2 2 2 2 1 1 1 2 3 4 4 4 5 5 3 2 3
2 2 2 2 2 2 2 3 3 3 3 2 2 2 2 2 2 2 2 2 2 2 2 2 1 1 1 1 2 2 4 4 4 4 3 5 6 6
Wind_Direction
210 210 210 217 216 219 219 218 222 262 273 254 264 272 278 278 288 293 290 305 312 312 312 311 309 302 301 303 303 305 309 312 313 313 311 313 315 316
213 211 223 222 223 223 220 227 225 231 260 258 245 257 278 288 294 292 287 307 308 309 309 308 307 303 300 301 301 304 307 309 310 311 312 313 313 315
225 224 240 231 223 229 228 229 232 224 249 270 256 264 262 273 297 295 290 286 290 303 307 309 310 310 303 300 301 303 304 307 309 309 310 311 311 312
225 223 243 244 240 238 231 238 239 231 233 261 273 265 257 268 280 289 301 299 287 301 307 310 313 312 305 299 300 303 307 308 309 309 309 310 310 311
227 226 237 233 245 249 244 246 246 245 231 244 267 263 262 280 287 289 292 293 296 301 307 311 315 317 314 308 302 305 309 310 310 310 309 310 310 310
237 237 238 231 235 243 249 246 241 239 234 237 257 264 264 275 267 283 298 296 294 302 306 306 308 317 319 318 313 309 309 310 309 309 310 309 310 309
247 251 250 251 253 253 250 242 230 236 238 245 255 261 258 259 260 260 277 296 289 287 298 300 302 302 306 308 312 312 315 316 314 314 316 315 311 310
244 261 263 266 277 283 279 274 261 241 239 243 250 251 252 247 251 258 267 294 299 299 310 299 298 290 292 289 306 313 315 316 316 319 321 319 315 312
233 253 275 276 287 268 287 295 289 277 255 243 246 251 248 238 238 252 254 261 267 280 299 292 294 289 291 300 307 310 317 320 321 322 324 325 325 319
235 236 247 261 259 256 257 274 268 268 264 250 241 251 251 241 229 235 241 261 267 268 253 282 296 290 299 297 301 311 318 321 325 328 330 330 328 325
250 246 253 260 268 273 259 262 270 268 275 264 260 263 270 270 256 238 241 265 284 283 243 261 291 299 297 291 297 313 321 323 325 327 327 328 330 329
271 263 267 273 277 281 250 239 259 267 260 277 286 294 288 279 277 244 227 245 265 279 259 247 286 316 313 294 291 296 305 314 323 326 327 328 330 329
267 274 276 286 287 291 287 250 257 268 243 239 258 277 286 285 280 261 236 233 246 257 254 248 272 270 275 298 300 291 297 305 311 314 322 327 329 329
252 264 269 288 293 299 300 284 287 289 245 242 271 276 273 276 275 268 258 250 242 247 250 235 244 256 280 289 294 307 314 306 306 310 313 323 329 328
255 272 286 298 309 310 302 300 300 280 250 256 267 273 263 259 269 282 278 273 277 268 253 236 235 248 255 269 282 291 309 309 308 318 319 321 319 322
307 301 314 325 325 313 312 310 294 268 261 258 272 273 269 261 259 257 270 288 300 298 283 258 244 239 253 262 269 281 284 283 303 313 312 310 312 314
277 258 341 323 325 317 310 300 293 299 292 273 268 275 273 271 275 272 267 271 269 285 299 301 277 253 245 251 270 272 278 281 281 300 310 311 309 311
322 277 280 281 284 293 295 294 284 279 274 271 270 270 273 273 282 285 271 261 269 276 282 290 312 319 307 271 240 262 279 281 293 298 295 301 303 308
295 269 269 273 281 280 275 269 269 274 269 264 269 269 272 273 276 277 274 270 272 277 279 278 284 295 307 305 300 250 263 292 303 303 298 293 292 300
275 263 273 277 277 277 275 271 269 273 270 268 268 267 262 266 271 274 273 268 271 283 287 279 259 251 252 272 288 295 290 279 287 297 303 301 292 296
277 274 273 269 270 271 272 271 269 270 271 269 267 268 262 262 265 267 271 273 272 275 281 283 280 289 271 277 289 294 299 300 291 282 296 304 309 315
265 272 271 268 266 268 268 269 270 269 268 264 264 267 268 266 265 265 266 270 271 272 279 287 302 305 264 245 270 286 302 316 322 320 304 285 285 298
261 264 264 265 265 269 268 267 266 264 262 258 259 262 266 269 267 262 261 257 267 277 287 303 316 304 265 257 275 291 300 312 321 332 326 325 318 309